Skip Page Navigation
NASA JPL Caltech
NASA Logo - Jet Propulsion Laboratory + View the NASA Portal
+ Center for Near-Earth Object Studies
JPL Home Earth Solar System Stars & Galaxies Technology
JPL Solar System Dynamics
BODIES ORBITS EPHEMERIDES TOOLS PHYSICAL DATA DISCOVERY FAQ SITE MAP
IMPORTANT: The SSD Announcement email list is now available. Major changes are coming in the near future, including possible hostname and/or URL changes. To be notified of such changes, subscribe to this email list.

Please visit this page for more details.


JPL Small-Body Database Browser
Search: [ help ]  
35910 (1999 JZ93)
Classification: Main-belt Asteroid          SPK-ID: 2035910
Ephemeris | Orbit Diagram | Orbital Elements | Mission Design | Physical Parameters | Discovery Circumstances | Close-Approach Data ]

[ show orbit diagram ]
Orbital Elements at Epoch 2458600.5 (2019-Apr-27.0) TDB
Reference: JPL 23 (heliocentric ecliptic J2000)
 Element Value Uncertainty (1-sigma)   Units 
e .0870524941603666 3.7727e-08  
a 2.318350978354422 1.0763e-08 au
q 2.116532743349544 8.987e-08 au
i 6.522680146979013 4.2228e-06 deg
node 133.1812626137227 3.442e-05 deg
peri 71.5671951716221 4.3145e-05 deg
M 258.3495002997029 2.8477e-05 deg
tp 2458964.561053577936
(2020-Apr-25.06105358)
0.00010333 TDB
period 1289.339252384158
3.53
8.9789e-06
2.458e-08
d
yr
n .2792127823102512 1.9444e-09 deg/d
Q 2.520169213359301 1.17e-08 au
  Orbit Determination Parameters
   # obs. used (total)      895  
   data-arc span      8180 days (22.40 yr)  
   first obs. used      1996-08-13  
   last obs. used      2019-01-05  
   planetary ephem.      DE431  
   SB-pert. ephem.      SB431-N16  
   condition code      0  
   norm. resid. RMS      .54806  
   source      ORB  
   producer      Otto Matic  
   solution date      2019-Jul-13 01:49:23  

Additional Information
 Earth MOID = 1.1242 au 
 Jupiter MOID = 2.45452 au 
 T_jup = 3.566 
[ show covariance matrix ]

Ephemeris | Orbit Diagram | Orbital Elements | Mission Design | Physical Parameters | Discovery Circumstances | Close-Approach Data ]

Physical Parameter Table
Parameter Symbol Value Units Sigma Reference Notes
absolute magnitude H 15.7   n/a MPO412440  
diameter diameter 1.915 km 0.199 urn:nasa:pds:neowise_diameters_albedos::2.0[mainbelt] (http://adsabs.harvard.edu/abs/2011ApJ...741...68M)  
geometric albedo albedo 0.253   0.063 urn:nasa:pds:neowise_diameters_albedos::2.0[mainbelt] (http://adsabs.harvard.edu/abs/2011ApJ...741...68M)  

35910 (1999 JZ93)          Discovered 1999-May-12 by LINEAR at Socorro
Reference: 20020227/Numbers.arcLast Updated: 2004-04-19

[ show close-approach data ]
Alternate Designations
 1999 JZ93 = 2000 SX254 
Ephemeris | Orbit Diagram | Orbital Elements | Mission Design | Physical Parameters | Discovery Circumstances | Close-Approach Data ]
ABOUT SSD CREDITS/AWARDS PRIVACY/COPYRIGHT GLOSSARY LINKS
FirstGov
(server date/time)  
NASA Home Page
Site Manager:   Ryan S. Park
Webmaster  Alan B. Chamberlin